Maplewood, Minnesota, United States
Lat: 44.95N, Lon: 93W
Wx Zone: MNZ062
Local Info
Past Weather Observations for Friday, August 19, 2016

NOTE: This archive is for the closest National Weather Service station to Maplewood. Information may differ from the station used for current weather conditions.

Click here for Long-term Archive

Time Weather Temperature Dewpoint Humidity Pressure Winds Precip Visibility
23:53
Overcast
66°F / 19°C 61°F / 16°C 83% 29.8 in
(1009 mb)
Calm 0.00 in
(0.00 mm)
10SM
22:53
Overcast
Light Rain
66°F / 19°C 61°F / 16°C 83% 29.83 in
(1010 mb)
N 11.5 mph
(N 19 kph)
0.00 in
(0.00 mm)
10SM
21:53
Overcast
Light Rain
64°F / 18°C 63°F / 17°C 94% 29.83 in
(1010 mb)
NW 12.7 mph
(NW 20 kph)
0.00 in
(0.00 mm)
10SM
20:53
Overcast
Light Rain
66°F / 19°C 63°F / 17°C 88% 29.83 in
(1010 mb)
NNW 9.2 mph
(NNW 15 kph)
0.00 in
(0.00 mm)
10SM
19:53
Overcast
Light Rain
66°F / 19°C 64°F / 18°C 94% 29.86 in
(1011 mb)
NW 8.1 mph
(NW 13 kph)
0.01 in
(0.25 mm)
10SM
19:00
Overcast
Light Rain
66°F / 19°C 64°F / 18°C 94% 29.83 in
(1010 mb)
NNW 6.9 mph
(NNW 11 kph)
0.00 in
(0.00 mm)
9SM
18:53
Overcast
Light Rain
66°F / 19°C 63°F / 17°C 88% 29.83 in
(1010 mb)
N 8.1 mph
(N 13 kph)
0.12 in
(3.05 mm)
2 1/2SM
18:14
Overcast
Light Rain
68°F / 20°C 64°F / 18°C 88% 29.83 in
(1010 mb)
NW 11.5 mph
(NW 19 kph)
0.02 in
(0.51 mm)
2 1/2SM
17:53
Overcast
Light Rain
70°F / 21°C 64°F / 18°C 83% 29.83 in
(1010 mb)
Calm 0.03 in
(0.76 mm)
8SM
17:35
Overcast
Light Rain
72°F / 22°C 63°F / 17°C 73% 29.83 in
(1010 mb)
Variable 4.6 mph
(Variable 7 kph)
0.02 in
(0.51 mm)
6SM
16:53
Overcast
Light Rain
73°F / 23°C 63°F / 17°C 69% 29.8 in
(1009 mb)
N 10.4 mph
(N 17 kph)
0.00 in
(0.00 mm)
10SM
15:53
Mostly Cloudy
75°F / 24°C 64°F / 18°C 69% 29.83 in
(1010 mb)
N 3.5 mph
(N 6 kph)
- 10SM
14:53
Overcast
75°F / 24°C 64°F / 18°C 69% 29.83 in
(1010 mb)
N 5.8 mph
(N 9 kph)
- 10SM
13:53
Partly Cloudy
75°F / 24°C 64°F / 18°C 69% 29.83 in
(1010 mb)
NW 3.5 mph
(NW 6 kph)
- 10SM
12:53
Partly Cloudy
75°F / 24°C 64°F / 18°C 69% 29.89 in
(1012 mb)
Variable 4.6 mph
(Variable 7 kph)
- 10SM
11:53
Overcast
72°F / 22°C 64°F / 18°C 78% 29.89 in
(1012 mb)
W 4.6 mph
(W 7 kph)
- 10SM
11:05
Overcast
72°F / 22°C 64°F / 18°C 78% 29.89 in
(1012 mb)
SSW 4.6 mph
(SSW 7 kph)
- 10SM
10:53
Overcast
72°F / 22°C 64°F / 18°C 78% 29.89 in
(1012 mb)
SSW 5.8 mph
(SSW 9 kph)
- 10SM
09:53
Overcast
70°F / 21°C 64°F / 18°C 83% 29.89 in
(1012 mb)
SSW 3.5 mph
(SSW 6 kph)
- 10SM
08:53
Overcast
70°F / 21°C 64°F / 18°C 83% 29.89 in
(1012 mb)
SSW 4.6 mph
(SSW 7 kph)
- 10SM
08:29
Overcast
68°F / 20°C 64°F / 18°C 88% 29.89 in
(1012 mb)
SW 5.8 mph
(SW 9 kph)
- 10SM
08:20
Overcast
68°F / 20°C 64°F / 18°C 88% 29.89 in
(1012 mb)
SW 4.6 mph
(SW 7 kph)
- 10SM
07:53
Mostly Cloudy
66°F / 19°C 64°F / 18°C 94% 29.89 in
(1012 mb)
SW 8.1 mph
(SW 13 kph)
- 10SM
07:48
Mostly Cloudy
66°F / 19°C 64°F / 18°C 94% 29.89 in
(1012 mb)
SSE 9.2 mph
(SSE 15 kph)
- 10SM
07:25
Partly Cloudy
66°F / 19°C 64°F / 18°C 94% 29.8 in
(1009 mb)
SE 8.1 mph
(SE 13 kph)
- 10SM
07:10
Mostly Cloudy
66°F / 19°C 64°F / 18°C 94% 29.86 in
(1011 mb)
S 6.9 mph
(S 11 kph)
- 10SM
06:53
Mostly Cloudy
68°F / 20°C 64°F / 18°C 88% 29.83 in
(1010 mb)
SE 3.5 mph
(SE 6 kph)
- 10SM
05:53
Mostly Cloudy
66°F / 19°C 64°F / 18°C 94% 29.83 in
(1010 mb)
S 11.5 mph
(S 19 kph)
0.00 in
(0.00 mm)
10SM
05:01
Mostly Cloudy
Light Rain
70°F / 21°C 64°F / 18°C 83% 29.83 in
(1010 mb)
SW 11.5 mph
(SW 19 kph)
0.00 in
(0.00 mm)
10SM
04:53
Mostly Cloudy
Thunder Storms
70°F / 21°C 64°F / 18°C 83% 29.83 in
(1010 mb)
SW 11.5 mph
(SW 19 kph)
0.05 in
(1.27 mm)
10SM
04:46
Mostly Cloudy
Thunder Storms
68°F / 20°C 64°F / 18°C 88% 29.8 in
(1009 mb)
S 18.4 mph
(S 30 kph)
0.05 in
(1.27 mm)
10SM
03:53
Mostly Cloudy
Rain
68°F / 20°C 64°F / 18°C 88% 29.8 in
(1009 mb)
NNW 11.5 mph
(NNW 19 kph)
0.18 in
(4.57 mm)
7SM
03:25
Overcast
Rain
68°F / 20°C 63°F / 17°C 83% 29.83 in
(1010 mb)
NW 17.3 mph
(NW 28 kph)
0.10 in
(2.54 mm)
6SM
03:10
Overcast
Thunder Storms
66°F / 19°C 63°F / 17°C 88% 29.86 in
(1011 mb)
Calm 0.06 in
(1.52 mm)
3SM
02:53
Mostly Cloudy
Rain
68°F / 20°C 63°F / 17°C 83% 29.89 in
(1012 mb)
W 11.5 mph
(W 19 kph)
0.29 in
(7.37 mm)
5SM
02:10
Overcast
Thunder Storms
70°F / 21°C 64°F / 18°C 83% 29.89 in
(1012 mb)
SSW 11.5 mph
(SSW 19 kph)
0.23 in
(5.84 mm)
3SM
02:08
Overcast
Thunder Storms
70°F / 21°C 64°F / 18°C 83% 29.89 in
(1012 mb)
SSW 13.8 mph
(SSW 22 kph)
0.23 in
(5.84 mm)
2SM
02:00
Overcast
Thunder Storms
72°F / 22°C 68°F / 20°C 88% 29.89 in
(1012 mb)
SW 17.3 mph
(SW 28 kph)
0.18 in
(4.57 mm)
1 3/4SM
01:53
Overcast
Thunder Storms
72°F / 22°C 68°F / 20°C 88% 29.89 in
(1012 mb)
SSE 16.1 mph
(SSE 26 kph)
0.02 in
(0.51 mm)
7SM
01:40
Overcast
Thunder Storms
72°F / 22°C 66°F / 19°C 83% 29.86 in
(1011 mb)
SSE 5.8 mph
(SSE 9 kph)
0.00 in
(0.00 mm)
10SM
00:53
Mostly Cloudy
72°F / 22°C 66°F / 19°C 83% 29.83 in
(1010 mb)
E 5.8 mph
(E 9 kph)
- 10SM
Time Weather Temperature Dewpoint Humidity Pressure Winds Precip Visibility


Weather for websites

WeatherForYou.com, LLC is not responsible for any damages or problems caused by this service. Current weather conditions are obtained from the closest station including government and personal stations which may have varying degrees of accuracy. Weather forecasts are derived from the NOAA NDFD. Like all things, this site belongs to Jesus Christ... He just trusts us to maintain it. If you have any questions or comments email webmaster@weatherforyou.com

Copyright © 2016, WeatherForYou.com LLC. All rights reserved.